Location: Newark
(50.4375°N, 16.6489°E)
Time: 06:14:57
(UTC+00:00)

Envisat - Pass Details

Date: 22 September 2019
Orbit: 764 x 766 km, 98.1° (Epoch: 21 October)

Event Time Altitude Azimuth Distance (km) Brightness Sun altitude
Rises 18:10:07 0° 206° (SSW) 3,223 6.4 -13.0°
Reaches altitude 10° 18:12:59 10° 222° (SW) 2,302 5.8 -13.5°
Maximum altitude 18:16:44 21° 270° (W) 1,695 5.8 -14.0°
Drops below altitude 10° 18:20:30 10° 318° (NW) 2,314 6.5 -14.6°
Sets 18:23:25 0° 335° (NNW) 3,246 6.9 -15.0°
